Location: Newark
(20.0000°S, 47.0000°E)
Time: 13:21:21
(UTC+00:00)

N. Korean satellite - Pass Details

Date: 20 August 2020
Orbit: 455 x 503 km, 97.2° (Epoch: 20 September)

Event Time Altitude Azimuth Distance (km) Brightness Sun altitude
Rises 00:56:39 0° 52° (NE) 2,587 11.0 -31.9°
Reaches altitude 10° 00:59:54 10° 84° (E) 1,715 10.2 -31.1°
Maximum altitude 01:01:20 12° 107° (ESE) 1,600 9.9 -30.8°
Drops below altitude 10° 01:02:45 10° 129° (SE) 1,722 9.9 -30.4°
Sets 01:06:01 0° 161° (SSE) 2,612 10.5 -29.7°
